Location: B�di�
(14.6834°N, 3.1047°W)
Time: 06:15:44
(UTC+00:00)

Aurora 2 Rocket - Pass Details

Date: 24 January 2020
Orbit: 390 x 1746 km, 25.0° (Epoch: 17 February)

Event Time Altitude Azimuth Distance (km) Brightness Sun altitude
Rises 19:11:55 0° 292° (WNW) 5,028 8.1 -15.7°
Reaches altitude 10° 19:15:27 10° 295° (WNW) 4,003 7.4 -16.6°
Maximum altitude 19:26:13 70° 17° (NNE) 1,595 4.4 -19.1°
Enters shadow 19:31:23 28° 93° (E) 2,281 4.9 -20.3°
